Retour au catalogue

FREGAT R/B

ActifMEO
NORAD 40352·ROCKET BODY·🇷🇺 Russia

Lancé Dec 18, 2014 depuis Guiana Space Centre

Loading…

Prochains Passages (prochaines 24 heures)

TLE

FraisSource: Space-Track

Époque: Sep 14, 2026, 09:10 UTC

1 40352U 14083E   26257.38211334 -.00000024  00000-0  00000-0 0  9994
2 40352   0.0943  52.6485 0007654  34.4489 272.9911  5.20672770223336

Suivez FREGAT R/B en temps réel avec AllMySat

Download on the App Store